Location: Borealis Mine
(38.3824°N, 118.7610°W)
Time: 16:42:39
(UTC+00:00)

Cosmos 841 Rocket - Pass Details

Date: 18 September 2020
Orbit: 746 x 773 km, 74.0° (Epoch: 19 October)

Event Time Altitude Azimuth Distance (km) Brightness Sun altitude
Rises 12:46:05 0° 192° (SSW) 3,195 6.5 -11.3°
Reaches altitude 10° 12:48:26 10° 191° (S) 2,279 5.7 -10.8°
Maximum altitude 12:53:36 77° 106° (ESE) 786 3.7 -9.8°
Drops below altitude 10° 12:58:50 10° 21° (NNE) 2,311 6.4 -8.8°
Sets 13:01:14 0° 21° (NNE) 3,245 7.2 -8.4°
